User: anonymous   Login
Location: Ciudad Delicias
(28.2170°N, 105.4670°W)
Time: 16:05:24
(UTC-07:00)
Language:

ETS-7 - Orbit

View from above orbital plane
View from above orbital plane
View from above satellite
View from above satellite

Ground track
Ground track

The orbit data is extracted from the following two-line orbital elements,

1 25064U 97074B   14295.10230652  .00036115  00000-0  55215-3 0  2860
2 25064 034.9599 155.5503 0002716 229.3710 265.8671 15.53344114940887
Epoch (UTC): 22 October 2014 02:27:19
Eccentricity: 0.0002716
inclination: 34.9599°
perigee height: 405 km
apogee height: 409 km
right ascension of ascending node: 155.5503°
argument of perigee: 229.3710°
revolutions per day: 15.53344114
mean anomaly at epoch: 265.8671°
orbit number at epoch: 94088

The dashed part of the orbit path shows where the satellite is in the earth's shadow,  

DLR